KD4PMP Weather Reports


Display with metric or nautical units.
time (UTC)temp
F
wind
direction
speed
MPH
gust
MPH
rain 1hr
in
rain 24hr
in
rain mn
in
humidity
%
barometer
mb
20260505053014 65 115 1.0 4.0 0.00 0.00 0.00 63 1010.6
20260505052014 66 161 1.0 4.0 0.00 0.00 0.00 62 1010.6
20260505051013 66 163 1.0 2.0 0.00 0.00 0.00 61 1010.7
20260505041011 68 182 2.0 4.0 0.00 0.00 0.00 58 1010.3
20260505040011 68 196 0.0 2.0 0.00 0.00 0.00 58 1010.4
20260505035011 68 196 2.0 3.0 0.00 0.00 0.00 57 1010.2
20260505034011 68 196 0.0 3.0 0.00 0.00 0.00 57 1010.3
20260505033010 68 193 0.0 2.0 0.00 0.00 0.00 57 1010.2
20260505032010 69 193 0.0 4.0 0.00 0.00 0.00 57 1010.1
20260505031010 69 202 0.0 3.0 0.00 0.00 0.00 56 1010.1
20260505030009 69 202 1.0 3.0 0.00 0.00 0.00 56 1010.1
20260505025009 69 201 1.0 2.0 0.00 0.00 0.00 55 1010.1
20260505024009 70 202 1.0 2.0 0.00 0.00 0.00 55 1010.0
20260505023009 70 202 1.0 2.0 0.00 0.00 0.00 54 1010.0
20260505022009 70 202 2.0 3.0 0.00 0.00 0.00 54 1010.0
20260505021008 71 202 1.0 2.0 0.00 0.00 0.00 53 1009.8
20260505020008 71 202 0.0 2.0 0.00 0.00 0.00 53 1009.7
20260505015008 72 202 1.0 3.0 0.00 0.00 0.00 53 1009.6
20260505014007 72 202 1.0 2.0 0.00 0.00 0.00 52 1009.8
20260505013007 73 202 2.0 2.0 0.00 0.00 0.00 51 1009.6
20260505012007 73 202 1.0 3.0 0.00 0.00 0.00 51 1009.6
20260505011006 74 202 2.0 4.0 0.00 0.00 0.00 50 1009.7
20260505010006 74 201 1.0 4.0 0.00 0.00 0.00 49 1009.6
20260505005006 75 224 2.0 3.0 0.00 0.00 0.00 48 1009.4
20260505004006 76 224 1.0 4.0 0.00 0.00 0.00 47 1009.4
20260505003005 76 223 2.0 3.0 0.00 0.00 0.00 46 1009.5
20260505002005 77 215 2.0 7.0 0.00 0.00 0.00 45 1009.4
20260505001004 77 196 2.0 4.0 0.00 0.00 0.00 44 1009.5
20260505000004 78 222 1.0 7.0 0.00 0.00 0.00 44 1009.4
20260504235004 79 209 3.0 8.0 0.00 0.00 0.00 42 1009.5
20260504234004 80 148 1.0 8.0 0.00 0.00 0.00 41 1009.6
20260504233003 80 234 2.0 8.0 0.00 0.00 0.00 41 1009.6
20260504232003 80 211 0.0 7.0 0.00 0.00 0.00 41 1009.6
20260504231003 81 251 2.0 6.0 0.00 0.00 0.00 39 1009.7
20260504230003 81 204 1.0 9.0 0.00 0.00 0.00 39 1009.5
20260504225003 81 189 2.0 9.0 0.00 0.00 0.00 40 1009.7
20260504224002 82 166 4.0 14.0 0.00 0.00 0.00 39 1009.6
20260504223001 82 212 4.0 10.0 0.00 0.00 0.00 40 1009.7
20260504222001 82 248 4.0 11.0 0.00 0.00 0.00 41 1009.7
20260504221001 82 152 2.0 9.0 0.00 0.00 0.00 41 1009.7
20260504220001 81 156 5.0 10.0 0.00 0.00 0.00 39 1009.4
20260504215001 82 207 1.0 10.0 0.00 0.00 0.00 39 1009.5
20260504214000 82 247 2.0 9.0 0.00 0.00 0.00 39 1009.5
20260504213000 82 212 3.0 8.0 0.00 0.00 0.00 42 1009.4
20260504212000 81 178 2.0 10.0 0.00 0.00 0.00 42 1009.4
20260504210959 82 202 4.0 8.0 0.00 0.00 0.00 41 1009.4
20260504205959 82 194 3.0 10.0 0.00 0.00 0.00 40 1009.5
20260504204959 82 250 1.0 9.0 0.00 0.00 0.00 42 1009.6
20260504203958 82 155 2.0 11.0 0.00 0.00 0.00 41 1009.7
20260504202958 81 178 7.0 12.0 0.00 0.00 0.00 39 1010.0
20260504201958 81 144 4.0 12.0 0.00 0.00 0.00 40 1009.9
20260504200958 82 180 4.0 13.0 0.00 0.00 0.00 39 1010.1
20260504195957 82 240 5.0 13.0 0.00 0.00 0.00 44 1010.1
20260504194957 83 280 4.0 12.0 0.00 0.00 0.00 40 1010.4
20260504193957 82 241 4.0 11.0 0.00 0.00 0.00 43 1010.5
20260504192956 82 250 2.0 17.0 0.00 0.00 0.00 42 1010.5
20260504191956 81 147 6.0 16.0 0.00 0.00 0.00 42 1010.5
20260504190956 81 175 9.0 10.0 0.00 0.00 0.00 44 1010.9
20260504190026 81 221 4.0 8.0 0.00 0.00 0.00 46 1011.1
20260504185025 81 239 4.0 10.0 0.00 0.00 0.00 44 1011.2
20260504184026 81 191 4.0 10.0 0.00 0.00 0.00 45 1011.3
20260504182954 80 227 4.0 11.0 0.00 0.00 0.00 46 1011.3
20260504182024 81 205 2.0 11.0 0.00 0.00 0.00 47 1011.4
20260504181024 80 265 7.0 11.0 0.00 0.00 0.00 50 1011.5
20260504175953 80 236 4.0 9.0 0.00 0.00 0.00 47 1011.5
20260504175024 80 276 3.0 9.0 0.00 0.00 0.00 48 1011.6
20260504174023 79 338 4.0 11.0 0.00 0.00 0.00 49 1011.8
20260504172953 79 204 3.0 10.0 0.00 0.00 0.00 47 1011.8
20260504172023 79 205 2.0 7.0 0.00 0.00 0.00 49 1012.0
20260504170954 78 239 3.0 7.0 0.00 0.00 0.00 51 1012.2
20260504151019 73 254 0.0 9.0 0.00 0.00 0.00 56 1013.4
20260504141017 68 151 1.0 5.0 0.00 0.00 0.00 63 1013.6
20260504082007 54 117 3.0 4.0 0.00 0.00 0.00 70 1013.6
20260504081006 54 117 3.0 4.0 0.00 0.00 0.00 70 1013.6